CW9861 Weather Reports


time (UTC)temp
F
wind
direction
speed
knots
gust
knots
rain 1hr
in
rain 24hr
in
rain mn
in
humidity
%
barometer
mb
20260505034958 63 229 2.6 11.3 0.00 0.00 0.00 69 997.9
20260505034458 64 257 2.6 8.7 0.00 0.00 0.00 69 997.9
20260505033958 64 244 2.6 10.4 0.00 0.00 0.00 68 997.6
20260505033458 64 199 3.5 10.4 0.00 0.00 0.00 68 997.4
20260505032958 64 309 2.6 7.0 0.00 0.00 0.00 67 997.3
20260505032458 64 235 2.6 9.6 0.00 0.00 0.00 67 997.0
20260505031958 65 217 2.6 10.4 0.00 0.00 0.00 66 996.8
20260505031459 65 276 1.7 12.2 0.00 0.00 0.00 66 996.8
20260505030958 65 217 3.5 16.5 0.00 0.00 0.00 67 996.5
20260505030458 66 230 4.3 16.5 0.00 0.00 0.00 66 996.8
20260505030000 66 226 2.6 8.7 0.00 0.00 0.00 64 996.8
20260505025458 66 303 3.5 7.8 0.00 0.00 0.00 63 997.4
20260505024958 66 234 2.6 9.6 0.00 0.00 0.00 62 996.8
20260505024458 66 200 3.5 12.2 0.00 0.00 0.00 61 996.4
20260505023958 67 207 3.5 12.2 0.00 0.00 0.00 61 996.2
20260505023458 67 227 5.2 14.8 0.00 0.00 0.00 61 996.1
20260505022958 67 258 6.1 14.8 0.00 0.00 0.00 62 996.2
20260505022458 68 271 7.0 13.0 0.00 0.00 0.00 64 996.2
20260505021959 68 259 5.2 12.2 0.00 0.00 0.00 65 996.0
20260505021458 69 243 4.3 12.2 0.00 0.00 0.00 64 996.1
20260505020958 69 194 2.6 7.8 0.00 0.00 0.00 63 996.3
20260505020459 70 305 2.6 11.3 0.00 0.00 0.00 63 996.6
20260505015958 70 216 6.1 11.3 0.00 0.00 0.00 60 996.9
20260505015458 70 223 4.3 10.4 0.00 0.00 0.00 58 996.5
20260505014958 70 342 5.2 13.9 0.00 0.00 0.00 57 996.0
20260505014458 70 214 6.1 13.0 0.00 0.00 0.00 56 995.7
20260505013959 71 195 7.0 14.8 0.00 0.00 0.00 55 995.7
20260505013459 71 244 5.2 14.8 0.00 0.00 0.00 53 995.7
20260505012958 71 169 3.5 8.7 0.00 0.00 0.00 51 995.6
20260505012458 71 215 2.6 13.0 0.00 0.00 0.00 50 995.6
20260505011958 71 192 5.2 13.0 0.00 0.00 0.00 49 995.5
20260505011458 71 201 3.5 10.4 0.00 0.00 0.00 47 995.3
20260505010958 71 172 4.3 9.6 0.00 0.00 0.00 45 995.5
20260505010457 71 225 4.3 13.9 0.00 0.00 0.00 44 995.5
20260505005958 71 276 3.5 10.4 0.00 0.00 0.00 43 995.4
20260505005459 71 228 3.5 13.9 0.00 0.00 0.00 43 995.5
20260505004957 71 266 2.6 13.9 0.00 0.00 0.00 42 995.5
20260505004458 71 216 6.1 11.3 0.00 0.00 0.00 41 995.3
20260505003958 72 193 1.7 8.7 0.00 0.00 0.00 41 995.3
20260505003457 72 236 4.3 8.7 0.00 0.00 0.00 41 995.2
20260505002958 72 184 3.5 7.8 0.00 0.00 0.00 40 995.1
20260505002458 72 212 2.6 7.8 0.00 0.00 0.00 40 995.0
20260505001958 72 223 3.5 7.8 0.00 0.00 0.00 40 994.9
20260505001458 73 226 4.3 9.6 0.00 0.00 0.00 39 994.9
20260505000958 73 240 4.3 9.6 0.00 0.00 0.00 39 994.9
20260505000458 73 305 2.6 7.0 0.00 0.00 0.00 40 994.9
20260505000000 73 333 2.6 9.6 0.00 0.00 0.00 40 994.9
20260504221959 74 337 5.2 13.0 0.00 0.00 0.00 37 996.9
20260504221458 75 235 5.2 14.8 0.00 0.00 0.00 38 997.0
20260504220958 75 266 5.2 14.8 0.00 0.00 0.00 37 996.9
20260504220458 74 212 3.5 12.2 0.00 0.00 0.00 37 997.0
20260504220000 74 322 2.6 13.0 0.00 0.00 0.00 38 997.0
20260504215459 74 236 4.3 17.4 0.00 0.00 0.00 38 997.0
20260504214959 74 232 7.8 17.4 0.00 0.00 0.00 37 997.1
20260504214459 74 209 7.0 15.6 0.00 0.00 0.00 36 997.1
20260504213959 74 280 3.5 15.6 0.00 0.00 0.00 39 997.2
20260504213459 74 225 5.2 20.9 0.00 0.00 0.00 37 997.3
20260504212959 74 295 7.8 20.9 0.00 0.00 0.00 36 997.4
20260504212459 74 309 5.2 15.6 0.00 0.00 0.00 36 997.4
20260504211959 75 199 1.7 10.4 0.00 0.00 0.00 36 997.4
20260504211459 75 226 4.3 16.5 0.00 0.00 0.00 35 997.4
20260504210959 74 221 6.1 16.5 0.00 0.00 0.00 35 997.6
20260504210459 74 195 6.1 12.2 0.00 0.00 0.00 37 997.6
20260504205958 74 236 6.1 13.9 0.00 0.00 0.00 34 997.6
20260504205459 74 281 7.8 14.8 0.00 0.00 0.00 34 997.5
20260504204958 74 214 7.0 15.6 0.00 0.00 0.00 33 997.7
20260504204457 73 331 3.5 15.6 0.00 0.00 0.00 33 998.0
20260504203958 73 243 7.8 17.4 0.00 0.00 0.00 32 998.0
20260504203458 74 240 9.6 17.4 0.00 0.00 0.00 30 998.0
20260504202958 74 328 4.3 13.0 0.00 0.00 0.00 32 997.9
20260504202458 74 271 3.5 16.5 0.00 0.00 0.00 35 997.9
20260504201958 75 234 6.1 16.5 0.00 0.00 0.00 34 998.0
20260504201458 75 219 4.3 11.3 0.00 0.00 0.00 33 998.0
20260504200958 75 224 5.2 16.5 0.00 0.00 0.00 35 998.1
20260504200459 75 271 7.0 16.5 0.00 0.00 0.00 34 998.2
20260504195958 75 221 6.1 14.8 0.00 0.00 0.00 32 998.4
20260504195458 75 259 5.2 14.8 0.00 0.00 0.00 32 998.3
20260504194959 75 235 3.5 16.5 0.00 0.00 0.00 32 998.3
20260504194458 75 313 7.8 16.5 0.00 0.00 0.00 29 998.4
20260504193958 75 313 6.1 14.8 0.00 0.00 0.00 32 998.5
20260504193458 74 337 7.0 13.9 0.00 0.00 0.00 28 998.5
20260504192958 75 223 6.1 16.5 0.00 0.00 0.00 30 998.5
20260504192458 75 291 6.1 16.5 0.00 0.00 0.00 30 998.4
20260504191958 76 280 6.1 17.4 0.00 0.00 0.00 27 998.5
20260504191457 75 211 9.6 19.1 0.00 0.00 0.00 28 998.5
20260504190958 75 317 7.8 19.1 0.00 0.00 0.00 27 998.4
20260504190458 75 188 8.7 18.2 0.00 0.00 0.00 30 998.4
20260504185958 75 222 6.1 18.2 0.00 0.00 0.00 28 998.3
20260504185458 76 213 7.8 18.2 0.00 0.00 0.00 30 998.3
20260504184957 75 343 8.7 16.5 0.00 0.00 0.00 27 998.4
20260504184458 75 220 8.7 14.8 0.00 0.00 0.00 28 998.4
20260504183958 76 232 7.8 14.8 0.00 0.00 0.00 29 998.4
20260504180457 75 313 8.7 18.2 0.00 0.00 0.00 27 998.3
20260504175958 75 280 7.0 13.9 0.00 0.00 0.00 28 998.5
20260504175458 76 288 5.2 13.0 0.00 0.00 0.00 27 998.5
20260504174958 76 206 6.1 15.6 0.00 0.00 0.00 27 998.7
20260504174457 76 303 6.1 15.6 0.00 0.00 0.00 30 998.9
20260504173958 76 299 6.1 13.0 0.00 0.00 0.00 30 998.7
20260504173457 75 234 7.0 11.3 0.00 0.00 0.00 31 998.8
20260504172958 76 240 2.6 18.2 0.00 0.00 0.00 33 998.9
20260504172458 75 320 2.6 18.2 0.00 0.00 0.00 32 998.9
20260504171958 75 196 4.3 13.0 0.00 0.00 0.00 34 999.0
20260504171457 75 286 6.1 14.8 0.00 0.00 0.00 31 999.1
20260504170957 75 313 6.1 14.8 0.00 0.00 0.00 32 999.1
20260504170457 74 9 6.1 14.8 0.00 0.00 0.00 34 999.2
20260504140959 63 200 3.5 11.3 0.00 0.00 0.00 62 1001.1
20260504140459 62 232 4.3 11.3 0.00 0.00 0.00 63 1001.1
20260504130458 57 230 4.3 8.7 0.00 0.00 0.00 72 1001.8
20260504110459 47 232 0.9 2.6 0.00 0.00 0.00 85 1001.4
20260504081958 49 224 0.9 2.6 0.00 0.00 0.00 80 1001.9
20260504081459 49 295 0.9 2.6 0.00 0.00 0.00 80 1002.0
20260504080958 49 307 0.0 2.6 0.00 0.00 0.00 80 1002.1
20260504080458 49 247 0.9 1.7 0.00 0.00 0.00 80 1002.1
20260504050457 51 162 2.6 7.0 0.00 0.00 0.00 77 1003.7
20260504045959 51 242 3.5 7.8 0.00 0.00 0.00 77 1003.8
20260504045458 51 210 3.5 8.7 0.00 0.00 0.00 77 1003.9
20260504044958 51 223 2.6 7.8 0.00 0.00 0.00 77 1003.9
20260504044458 51 226 3.5 7.8 0.00 0.00 0.00 77 1004.0
20260504043958 51 165 2.6 7.8 0.00 0.00 0.00 76 1004.0
20260504043459 51 180 1.7 8.7 0.00 0.00 0.00 76 1004.0
20260504042958 51 180 3.5 8.7 0.00 0.00 0.00 76 1004.1
20260504042458 51 266 3.5 7.8 0.00 0.00 0.00 76 1004.1
20260504041958 51 238 3.5 7.8 0.00 0.00 0.00 76 1004.2
20260504041458 51 180 2.6 7.8 0.00 0.00 0.00 76 1004.2
20260504041000 51 220 3.5 11.3 0.00 0.00 0.00 76 1004.2
20260504040458 51 271 5.2 11.3 0.00 0.00 0.00 76 1004.2
20260504035959 51 218 1.7 8.7 0.00 0.00 0.00 75 1004.2
20260504035458 51 180 2.6 11.3 0.00 0.00 0.00 75 1004.3